Location: Airlie Beach - Cannonvale QLD, Australia
(20.2768°S, 148.7558°E)
Time: 07:05:09
(UTC+10:00)

BlueWalker 3 - Visible Passes

Search period start: 26 March 2023 00:00
Search period end: 05 April 2023 00:00
Orbit: 497 x 515 km, 53.2° (Epoch: 24 March)

Date Brightness Start Highest point End Pass type
(mag) Time Alt. Az. Time Alt. Az. Time Alt. Az.
28 Mar 4.8 05:29:44 10° NNE 05:32:12 16° ENE 05:34:41 10° E visible
29 Mar 4.8 05:09:54 10° NNE 05:12:29 17° ENE 05:15:06 10° E visible
30 Mar 4.6 04:50:03 10° NNE 04:52:45 18° ENE 04:55:29 10° ESE visible
31 Mar 4.4 04:30:30 11° NNE 04:33:00 20° ENE 04:35:51 10° ESE visible
01 Apr 4.2 04:12:59 21° NE 04:13:14 21° ENE 04:16:11 10° ESE visible
02 Apr 4.8 03:55:13 16° E 03:55:13 16° E 03:56:29 10° ESE visible
02 Apr 3.4 05:30:02 15° W 05:31:52 21° SW 05:34:52 10° S visible
03 Apr 3.4 05:12:02 20° SW 05:12:05 20° SW 05:15:00 10° S visible
04 Apr 4.0 04:53:50 15° SSW 04:53:50 15° SSW 04:55:06 10° S visible
